Location: Madrid
(40.4000°N, 3.6830°W)
Time: 01:18:04
(UTC+02:00)

ISS - Pass Details

Date: 15 July 2019
Orbit: 409 x 418 km, 51.6° (Epoch: 23 July)

Event Time Altitude Azimuth Distance (km) Brightness Sun altitude
Rises 05:31:25 0° 312° (NW) 2,344 0.0 -13.8°
Reaches altitude 10° 05:33:45 10° 326° (NW) 1,479 -0.9 -13.5°
Maximum altitude 05:36:35 26° 25° (NNE) 859 -1.4 -13.1°
Drops below altitude 10° 05:39:25 10° 84° (E) 1,472 -0.2 -12.7°
Sets 05:41:43 0° 97° (E) 2,330 0.6 -12.4°
